Regional Weather Roundup
Issued by NWS

Home | Current Version | Previous Version | Text Only | Print | Product List | Glossary Off
Versions: 1 2 3 4 5 6 7 8 9 10 11 12 13 14 15 16 17 18 19 20 21 22 23 24 25 26 27

000
ASUS45 KCYS 211210
RWRWY

WYOMING REGIONAL WEATHER ROUNDUP
NATIONAL WEATHER SERVICE CHEYENNE WY
500 AM MST TUE NOV 21 2017

NOTE:  "FAIR" INDICATES FEW OR NO CLOUDS BELOW 12,000 FEET
WITH NO SIGNIFICANT WEATHER AND/OR OBSTRUCTIONS TO VISIBILITY.

WYZ001-211300-
YELLOWSTONE NATIONAL PARK

CITY           SKY/WX    TMP DP  RH WIND       PRES   REMARKS
LK YELLOWSTONE   N/A     26  25  96 W5        30.20R WCI  20
6HR MIN TEMP:  25; 6HR MAX TEMP:  30; 6HR PCP:  0.07;

W YELLOWSTONE  NOT AVBL

$$
WYZ002>013-054>058-071-098>099-211300-
NORTHERN WYOMING

CITY           SKY/WX    TMP DP  RH WIND       PRES   REMARKS
JACKSON        FLURRIES  36  33  89 NE5       30.18R WCI  32
CODY           CLOUDY    26  24  92 NE9       30.18R WCI  17
GREYBULL       FAIR      32  28  85 NW13      30.15R WCI  22
6HR MIN TEMP:  32; 6HR MAX TEMP:  38; 6HR PCP: TRACE;

WORLAND        CLOUDY    35  31  85 N7        30.16R WCI  29
6HR MIN TEMP:  28; 6HR MAX TEMP:  35;

SHERIDAN       CLOUDY    27  24  89 W3        30.24R
6HR MIN TEMP:  26; 6HR MAX TEMP:  37; 6HR PCP:  0.08;

BUFFALO        CLOUDY    24  21  88 NE6       30.21R WCI  17
6HR MIN TEMP:  24; 6HR MAX TEMP:  38; 6HR PCP: TRACE;

GILLETTE       CLOUDY    24  21  88 N8        30.20R WCI  15
6HR MIN TEMP:  23; 6HR MAX TEMP:  34;

HULETT         CLOUDY    27  23  86 NW7       30.21R WCI  19
NEWCASTLE      CLOUDY    28  21  74 NW12      30.17R WCI  18

$$
WYZ014>020-022>026-101>103-211300-
CENTRAL WYOMING

CITY           SKY/WX    TMP DP  RH WIND       PRES   REMARKS
BIG PINEY      MOCLDY    25  25 100 N7        30.19R WCI  17
6HR MIN TEMP:  25; 6HR MAX TEMP:  31; 6HR PCP: TRACE;

PINEDALE       LGT SNOW  30  30 100 W6        30.19R WCI  24
DUBOIS         DRIZZLE   34  32  93 NW16      30.13R WCI  23
LANDER         LGT RAIN  36  28  73 N7        30.14R WCI  30
6HR MIN TEMP:  33; 6HR MAX TEMP:  40; 6HR PCP: TRACE;

RIVERTON       CLOUDY    37  32  82 W6        30.14R WCI  32
6HR MIN TEMP:  34; 6HR MAX TEMP:  42; 6HR PCP: TRACE;

CASPER         CLOUDY    33  30  88 N12       30.18R WCI  24
6HR MIN TEMP:  32; 6HR MAX TEMP:  41;

DOUGLAS        CLOUDY    31  30  96 N14G24    30.16R WCI  21
6HR MIN TEMP:  31; 6HR MAX TEMP:  44;


$$
WYZ021-027>030-104>119-211300-
SOUTHERN WYOMING

CITY           SKY/WX    TMP DP  RH WIND       PRES   REMARKS
EVANSTON       FAIR      38  35  89 W18       30.25S WCI  28
6HR MIN TEMP:  37; 6HR MAX TEMP:  39; 6HR PCP:  0.01;

KEMMERER       FAIR      34  34 100 W22G29    30.20R WCI  22
FORT BRIDGER   CLOUDY    39  38  94 SW18G28   30.25S WCI  30
ROCK SPRINGS   FAIR      36  32  85 SW12      30.19R WCI  28
6HR MIN TEMP:  35; 6HR MAX TEMP:  38;

DIXON          CLOUDY    39  26  60 W7        30.21R WCI  34
RAWLINS        CLOUDY    37  33  85 W20G31    30.15R WCI  27
6HR MIN TEMP:  37; 6HR MAX TEMP:  40; 6HR PCP: TRACE;

SARATOGA       CLOUDY    36  32  87 W14G23    30.16R WCI  27
LARAMIE        CLOUDY    36  33  89 NW17      30.10R WCI  26
6HR MIN TEMP:  35; 6HR MAX TEMP:  39; 6HR PCP: TRACE;

CHEYENNE       LGT RAIN  42  35  76 NW21G26   30.09R
6HR MIN TEMP:  42; 6HR MAX TEMP:  48; 6HR PCP: TRACE;

TORRINGTON     CLOUDY    35  26  69 NE7       30.14R WCI  29
6HR MIN TEMP:  35; 6HR MAX TEMP:  52;

PINE BLUFFS    PTSUNNY   39  28  65 N15       30.09R WCI  31

$$




USA.gov is the U.S. government's official web portal to all federal, state and local government web resources and services.